Wind_Speed
7 8 9 9 10 11 14 17 17 15 14 13 13 13 12 9 8 7 5 4 5 6 5 5 5 5 5 5 5 5 5 5 5 6 6 7 7 7 7 8 8 8 9 8 8 8 8 8 8
6 7 7 7 8 10 13 17 17 15 14 13 12 11 10 9 8 6 4 4 5 5 4 4 4 4 4 4 4 4 3 3 4 4 5 5 6 6 6 7 7 7 8 8 8 8 8 8 8
4 5 6 7 7 10 12 15 16 16 14 13 12 11 9 8 7 6 5 4 5 5 4 4 4 4 4 3 3 3 2 2 3 3 4 5 5 5 5 5 6 7 7 7 7 8 8 7 7
2 3 4 5 6 9 11 14 15 17 15 14 13 13 10 8 7 6 5 5 4 4 3 3 3 3 3 3 2 2 1 1 2 2 3 4 4 4 4 4 5 6 7 7 7 7 7 7 6
0 1 1 2 5 6 9 13 15 16 15 14 13 13 11 9 8 7 6 5 4 3 2 2 2 2 2 2 2 2 1 1 1 2 3 3 4 4 4 4 5 5 6 6 6 6 6 6 6
1 0 0 1 3 5 8 11 14 15 14 13 12 12 11 9 8 7 7 6 4 3 2 1 1 1 2 2 1 1 1 1 1 1 2 2 3 3 3 4 4 4 4 5 5 6 6 6 6
3 2 1 1 2 5 7 10 14 16 15 12 11 12 11 9 7 7 7 6 4 3 2 1 1 1 2 2 1 1 1 1 1 1 1 2 2 2 3 3 3 3 4 4 5 5 5 5 5
5 5 4 3 3 3 5 9 13 15 14 12 11 12 12 10 7 6 7 6 5 4 2 1 1 0 1 1 1 1 1 0 0 0 1 1 1 1 2 2 2 2 3 3 4 4 4 4 4
7 7 5 4 3 0 5 9 12 14 13 12 11 11 12 9 8 7 7 6 5 5 3 2 2 1 0 1 1 1 1 0 0 0 0 1 1 1 1 1 1 2 2 2 3 3 4 4 4
10 10 8 6 4 2 5 8 12 12 12 11 10 10 10 8 8 7 6 5 5 5 4 3 2 1 0 0 0 1 1 1 1 1 1 1 1 1 1 0 1 1 1 2 2 3 3 4 4
13 13 11 8 6 5 7 9 10 11 11 10 9 10 10 10 8 7 6 5 5 5 4 4 3 1 1 1 1 1 1 1 1 1 2 2 2 2 2 1 1 1 1 1 1 2 2 3 3
16 16 14 11 9 9 10 10 10 9 9 9 8 9 10 9 9 8 7 6 6 5 4 4 3 2 1 1 1 1 1 2 2 2 2 2 2 2 2 2 1 2 1 0 1 1 1 2 2
19 18 17 14 12 11 12 13 12 9 8 8 8 8 8 8 8 8 7 6 6 5 5 4 3 2 2 1 2 2 2 2 2 1 2 2 2 2 3 3 3 2 2 1 1 0 1 2 2
21 21 19 17 14 13 13 14 13 10 9 8 7 7 7 8 7 7 6 6 6 5 5 3 2 2 3 2 2 3 3 3 2 2 2 2 3 3 2 3 4 3 2 2 1 0 0 1 1
23 23 21 19 16 14 14 14 13 12 10 8 7 7 7 8 7 6 6 6 6 5 5 3 3 2 3 3 3 3 4 4 3 4 3 3 3 3 3 3 3 3 3 2 2 1 1 0 1
23 22 20 18 16 15 14 13 13 13 11 9 8 7 7 8 7 6 6 6 6 5 5 4 3 3 3 3 3 3 4 4 4 4 4 3 3 4 3 3 3 3 3 3 2 2 1 1 1
23 21 19 18 17 16 15 13 13 14 13 12 10 8 8 8 8 7 6 6 6 5 4 4 4 3 3 3 3 3 4 4 5 5 4 4 5 4 4 4 5 5 4 4 3 3 3 2 2
23 21 20 18 17 17 15 13 14 14 15 14 12 10 9 8 8 8 7 6 6 5 4 4 4 4 4 4 4 4 5 5 6 6 5 5 6 6 5 5 6 6 5 4 4 4 4 3 3
25 24 22 19 19 19 17 15 15 16 16 16 14 12 10 9 8 9 8 7 6 5 5 5 5 4 5 5 4 4 5 6 6 7 7 6 6 7 7 6 7 7 6 5 5 5 4 4 4
27 26 23 21 20 19 18 17 17 18 18 17 16 14 12 10 9 9 9 8 7 6 6 6 6 5 6 6 6 5 6 6 7 7 7 7 7 7 7 7 7 7 7 7 6 5 5 4 5
28 26 24 22 21 20 19 19 20 19 19 18 17 14 13 10 9 10 10 9 9 8 7 7 7 6 6 7 7 6 6 6 6 7 7 8 8 8 7 7 7 8 8 8 7 7 6 6 6
28 26 25 24 24 23 22 22 20 19 19 18 16 14 12 11 11 11 10 10 10 10 9 8 8 8 8 8 7 7 7 7 7 7 7 8 8 8 8 8 8 8 9 9 9 9 8 7 7
27 27 27 27 27 26 25 24 22 20 21 19 16 14 12 11 11 11 11 11 11 11 10 9 9 9 10 9 9 8 8 8 8 7 8 9 9 9 10 9 9 9 10 10 10 10 9 9 8
28 29 30 30 29 29 26 27 23 21 21 19 17 15 14 12 12 12 12 12 12 12 11 10 10 10 10 10 10 9 8 9 9 8 9 9 10 10 10 10 10 11 11 12 12 11 11 11 10
32 32 33 33 32 29 26 28 22 19 20 20 19 17 14 12 12 12 12 12 12 12 11 10 10 10 10 10 10 9 10 10 9 9 9 9 10 11 11 11 11 11 12 12 13 12 12 12 12
32 33 34 34 32 29 28 28 21 19 20 20 21 19 15 13 12 12 12 12 12 12 12 12 11 11 11 10 10 9 9 9 9 10 10 10 11 11 11 11 11 12 12 12 13 13 13 13 13
32 33 32 32 32 31 30 27 22 20 22 21 21 19 16 13 12 12 12 12 12 11 12 12 12 11 11 10 10 9 9 9 10 11 11 11 11 12 12 13 13 12 12 13 13 14 14 15 15
31 31 32 32 32 32 30 27 23 22 22 20 19 17 14 13 12 12 11 12 13 12 12 13 12 12 11 11 10 10 9 9 10 10 11 11 12 12 13 14 15 14 13 14 14 15 15 15 16
31 32 33 33 33 31 30 26 24 21 21 21 18 16 14 13 13 13 12 12 13 13 13 13 13 12 12 11 11 11 10 10 10 11 12 12 12 12 13 14 14 15 15 16 16 17 17 17 17
31 32 32 34 33 31 30 25 23 21 21 20 18 17 15 14 13 13 13 13 13 13 13 12 13 12 12 12 11 11 10 10 10 11 12 12 12 12 13 14 14 15 16 16 17 17 17 17 17
Wind_Direction
63 72 75 74 62 52 47 40 30 25 25 27 27 28 29 31 36 42 48 64 76 83 94 101 97 94 93 89 83 77 69 65 69 79 84 85 91 89 91 94 94 92 91 87 86 85 88 86 88
65 78 82 77 64 48 39 33 23 20 22 27 30 31 30 30 30 39 47 57 71 79 85 94 96 97 95 91 85 78 66 58 63 74 74 78 80 83 88 89 85 84 84 82 83 84 86 86 87
59 78 86 86 66 43 31 28 18 11 12 19 25 30 28 27 26 37 41 49 66 76 81 90 98 101 97 94 89 80 69 52 55 66 68 69 73 77 78 79 80 80 80 82 84 83 81 81 81
64 80 86 85 63 45 29 21 15 6 3 10 16 19 21 22 27 36 42 47 57 68 77 78 103 107 96 89 84 79 72 51 51 69 63 64 71 71 72 74 77 77 81 81 80 78 75 74 73
73 61 72 59 60 48 26 14 6 359 359 5 8 13 21 28 28 33 43 48 50 55 69 76 97 108 101 94 82 80 76 53 47 62 62 63 70 72 75 78 74 76 79 79 77 74 70 68 67
247 314 45 68 68 58 22 5 356 352 354 1 6 13 28 38 34 31 41 44 45 48 59 75 93 117 104 84 81 91 87 68 46 39 55 65 71 75 79 76 71 72 77 78 75 72 68 65 62
201 186 190 172 105 73 26 355 344 347 350 356 4 13 27 40 39 31 39 45 45 44 49 37 55 107 113 97 82 94 112 77 29 16 38 55 60 69 75 76 72 73 80 82 76 69 66 60 58
195 194 198 150 121 78 14 340 334 341 345 354 4 11 21 37 44 37 37 41 45 51 50 51 42 38 119 110 96 110 131 161 250 19 39 52 54 58 68 75 75 81 84 80 73 65 62 57 54
198 194 192 168 144 6 337 325 325 332 337 345 354 6 18 35 47 43 38 41 44 44 48 52 43 37 115 122 103 110 152 172 211 257 314 2 4 11 28 69 83 92 89 84 72 60 56 57 55
201 193 195 198 183 261 293 303 310 322 335 341 349 3 15 31 48 47 38 34 37 40 38 40 28 13 228 186 155 170 196 213 223 245 268 297 301 305 297 224 126 121 105 89 67 58 57 62 57
209 205 206 214 227 243 264 281 295 314 327 339 351 2 12 30 46 45 35 24 25 27 23 25 19 359 280 211 194 181 203 213 215 244 265 279 278 287 270 242 214 167 158 91 59 59 60 61 58
216 214 219 226 238 242 252 267 280 299 321 337 351 359 6 26 40 42 38 25 18 19 12 6 12 5 341 262 226 202 208 205 206 241 254 268 271 266 238 239 225 206 208 240 20 44 58 62 65
221 220 224 229 232 238 245 257 267 285 310 331 347 355 1 11 24 33 37 29 19 21 19 4 4 360 351 295 228 212 209 211 207 217 253 260 269 252 230 237 238 225 233 240 297 36 72 43 49
225 226 229 230 226 232 240 250 262 273 295 315 330 342 351 357 8 17 25 25 24 19 13 1 353 340 332 299 240 217 215 214 215 228 251 265 271 263 237 246 242 231 230 229 245 223 20 17 32
227 228 229 231 228 231 241 249 257 266 279 300 314 328 339 342 351 4 12 13 10 9 4 10 5 339 332 317 260 236 226 227 235 236 251 265 259 255 245 250 239 229 237 239 237 241 253 298 4
227 227 229 229 228 230 238 248 255 263 272 285 298 308 316 322 332 347 355 355 356 0 1 8 359 348 338 336 298 250 232 228 236 244 252 254 245 243 236 233 230 232 240 243 238 241 257 261 292
225 226 225 226 228 231 237 243 256 263 270 277 283 292 298 304 315 327 334 338 340 343 345 352 343 337 328 328 316 269 241 234 237 242 250 246 242 240 236 234 238 236 244 241 236 242 250 257 261
224 222 219 218 225 234 239 242 252 261 268 270 274 280 288 297 305 310 313 318 322 324 322 327 330 330 321 318 308 280 260 249 246 242 244 244 241 240 239 240 240 237 244 245 243 248 248 253 255
222 221 218 219 222 230 236 242 248 260 265 268 269 275 280 285 292 302 305 304 306 309 306 308 311 314 313 307 300 268 264 260 258 249 243 245 241 240 241 243 241 236 242 243 240 249 254 256 253
220 219 218 220 222 227 234 241 246 258 263 265 268 268 274 276 283 293 295 293 295 293 290 295 296 301 305 301 298 285 271 266 264 259 248 246 242 242 241 240 238 237 240 239 236 243 257 260 258
219 219 219 216 218 224 228 237 241 250 257 262 266 267 268 279 282 283 285 284 284 280 278 286 290 291 297 297 293 285 270 264 268 266 260 249 241 236 236 237 238 238 240 238 240 246 254 260 260
216 217 218 217 218 221 228 235 239 247 254 260 262 266 267 271 277 278 280 282 280 278 278 282 285 287 292 296 290 285 267 261 266 259 254 247 240 235 233 236 238 239 241 243 246 248 256 259 259
216 216 217 218 220 223 228 236 239 246 252 255 259 262 266 272 275 274 272 272 273 275 275 275 279 280 284 283 280 279 271 265 265 254 249 249 243 235 236 239 239 240 242 245 248 251 255 255 257
215 215 216 218 220 223 227 237 240 244 251 252 256 260 263 266 268 268 266 265 269 273 271 273 276 278 279 277 271 271 270 262 258 254 252 251 242 238 241 242 238 239 245 248 250 251 253 254 255
214 214 215 218 222 224 226 238 243 244 248 248 249 254 260 261 266 264 260 260 266 270 272 274 278 278 277 275 269 267 268 264 258 255 253 251 246 240 238 238 239 242 247 248 249 252 253 255 257
217 217 219 222 225 225 227 237 244 241 240 245 247 250 252 256 260 262 257 257 262 267 270 272 276 275 272 271 271 268 266 260 257 257 258 256 250 240 236 239 240 244 249 250 251 254 254 254 257
216 218 221 224 226 226 226 233 235 235 235 243 247 245 250 257 259 261 259 258 264 266 269 272 273 271 268 267 271 267 268 263 259 258 258 256 249 242 242 245 243 244 249 253 254 256 256 256 256
216 217 219 222 224 226 225 227 232 235 237 242 248 248 250 256 259 261 258 258 259 262 266 271 271 268 265 265 267 269 270 262 258 256 256 254 248 247 246 249 246 247 252 254 258 260 260 259 257
213 216 219 221 224 226 226 226 231 237 237 240 245 249 253 257 257 256 256 259 257 258 263 268 267 264 263 262 266 268 268 262 258 255 255 254 248 249 249 252 250 251 254 258 262 263 262 259 258
215 217 219 221 223 227 229 225 228 235 238 241 242 243 247 251 253 256 258 260 259 263 264 268 266 263 260 258 262 262 262 259 254 254 253 253 251 252 252 254 253 255 258 260 262 265 266 260 257
Height
5901 5900 5900 5900 5899 5898 5896 5896 5895 5896 5895 5894 5893 5893 5892 5891 5891 5893 5890 5888 5888 5887 5887 5888 5888 5889 5889 5889 5890 5890 5890 5891 5891 5890 5890 5890 5889 5889 5889 5889 5888 5888 5888 5888 5888 5888 5888 5888 5888
5901 5901 5901 5900 5899 5897 5897 5897 5897 5897 5897 5896 5895 5895 5893 5892 5891 5890 5889 5889 5888 5888 5889 5889 5889 5890 5890 5890 5891 5891 5892 5892 5892 5892 5892 5892 5891 5891 5891 5890 5890 5890 5890 5890 5889 5889 5889 5889 5889
5902 5901 5901 5901 5899 5898 5898 5897 5897 5897 5897 5896 5896 5896 5894 5893 5891 5890 5890 5889 5889 5889 5889 5890 5890 5891 5891 5891 5892 5892 5893 5893 5893 5893 5893 5893 5893 5893 5892 5892 5892 5891 5891 5891 5891 5891 5890 5890 5890
5902 5902 5902 5901 5899 5898 5898 5898 5897 5898 5898 5897 5896 5896 5895 5893 5891 5890 5890 5890 5890 5890 5890 5891 5891 5891 5892 5892 5893 5893 5894 5894 5894 5894 5894 5894 5894 5894 5894 5893 5893 5893 5892 5892 5892 5892 5891 5891 5891
5902 5903 5902 5901 5899 5898 5898 5899 5899 5899 5899 5897 5896 5896 5895 5893 5891 5890 5890 5890 5890 5891 5891 5892 5892 5892 5893 5893 5894 5894 5895 5895 5895 5895 5895 5895 5895 5895 5895 5895 5894 5894 5894 5894 5893 5893 5893 5892 5892
5903 5903 5903 5901 5900 5899 5898 5899 5900 5900 5899 5898 5897 5897 5895 5893 5891 5890 5890 5890 5891 5891 5892 5892 5893 5893 5893 5894 5894 5895 5895 5895 5896 5896 5896 5896 5896 5896 5896 5896 5895 5895 5895 5895 5895 5894 5894 5894 5893
5903 5903 5902 5901 5900 5899 5899 5899 5901 5901 5900 5899 5897 5896 5896 5894 5893 5891 5891 5891 5891 5892 5892 5893 5893 5894 5894 5894 5894 5895 5895 5896 5896 5896 5897 5897 5897 5897 5897 5897 5896 5896 5896 5896 5895 5895 5895 5894 5894
5903 5903 5902 5901 5900 5900 5900 5900 5901 5900 5900 5899 5897 5896 5896 5895 5893 5892 5891 5892 5892 5892 5893 5893 5893 5894 5894 5894 5895 5895 5895 5896 5896 5897 5897 5897 5897 5897 5897 5897 5897 5897 5897 5896 5896 5896 5895 5895 5895
5902 5903 5901 5900 5899 5899 5900 5900 5900 5900 5900 5898 5897 5896 5895 5894 5893 5893 5892 5892 5892 5892 5893 5893 5893 5893 5894 5894 5895 5895 5895 5896 5896 5897 5897 5897 5897 5897 5897 5897 5897 5897 5897 5897 5897 5896 5896 5895 5895
5900 5901 5900 5899 5899 5898 5899 5900 5900 5900 5899 5899 5897 5896 5894 5894 5894 5893 5893 5893 5893 5893 5893 5893 5893 5893 5893 5894 5894 5895 5895 5896 5896 5897 5897 5897 5897 5898 5898 5897 5897 5897 5897 5897 5897 5897 5896 5896 5895
5898 5899 5899 5898 5898 5898 5898 5899 5899 5899 5899 5899 5897 5896 5895 5894 5893 5893 5893 5893 5893 5893 5893 5893 5893 5893 5893 5893 5894 5894 5895 5895 5896 5896 5897 5897 5897 5897 5897 5898 5898 5898 5898 5897 5897 5897 5897 5896 5896
5896 5897 5897 5897 5897 5897 5897 5898 5898 5899 5899 5899 5898 5896 5895 5894 5894 5894 5894 5893 5893 5893 5892 5892 5892 5892 5892 5893 5893 5894 5894 5895 5895 5896 5896 5896 5897 5897 5897 5897 5898 5898 5898 5897 5897 5897 5897 5896 5896
5893 5894 5894 5895 5896 5896 5897 5897 5897 5898 5898 5898 5897 5896 5896 5895 5895 5895 5895 5894 5893 5893 5892 5892 5892 5892 5892 5892 5893 5893 5894 5894 5895 5896 5896 5896 5896 5897 5897 5897 5897 5898 5898 5897 5897 5897 5897 5896 5896
5890 5891 5892 5893 5894 5894 5896 5896 5896 5896 5896 5897 5897 5896 5896 5895 5895 5894 5894 5894 5893 5893 5892 5892 5892 5891 5892 5892 5892 5892 5893 5894 5894 5895 5895 5896 5896 5896 5896 5897 5897 5897 5897 5897 5897 5897 5897 5897 5896
5885 5888 5889 5891 5892 5892 5894 5895 5895 5894 5895 5896 5896 5896 5896 5895 5895 5894 5893 5893 5893 5892 5892 5891 5891 5891 5891 5891 5891 5892 5892 5893 5893 5894 5894 5895 5895 5895 5896 5896 5896 5896 5897 5897 5897 5897 5897 5897 5897
5881 5884 5887 5889 5889 5890 5892 5893 5893 5892 5893 5894 5894 5895 5895 5895 5894 5894 5893 5892 5892 5892 5891 5891 5891 5891 5890 5890 5890 5890 5891 5892 5892 5893 5893 5894 5894 5895 5895 5895 5896 5896 5897 5897 5897 5897 5897 5897 5896
5877 5881 5883 5885 5887 5887 5889 5890 5891 5890 5891 5892 5893 5893 5894 5894 5894 5893 5892 5892 5891 5891 5890 5890 5889 5890 5890 5890 5889 5889 5890 5890 5891 5891 5892 5892 5893 5894 5894 5895 5895 5896 5896 5896 5896 5896 5896 5896 5896
5874 5877 5879 5881 5883 5884 5885 5887 5888 5888 5888 5890 5890 5891 5892 5893 5893 5892 5892 5891 5890 5890 5890 5889 5889 5888 5888 5888 5888 5888 5888 5889 5889 5890 5890 5891 5891 5892 5893 5894 5894 5895 5895 5896 5896 5896 5896 5896 5896
5869 5871 5874 5877 5878 5880 5881 5883 5884 5884 5885 5887 5888 5889 5890 5891 5892 5891 5890 5890 5889 5889 5888 5888 5888 5887 5887 5887 5887 5887 5887 5887 5888 5888 5888 5889 5889 5890 5891 5892 5893 5893 5894 5894 5895 5895 5895 5895 5895
5863 5866 5870 5873 5874 5875 5877 5879 5881 5881 5882 5884 5885 5886 5888 5888 5888 5889 5889 5888 5888 5887 5887 5887 5886 5886 5885 5885 5885 5885 5885 5885 5886 5886 5886 5887 5887 5888 5889 5890 5891 5892 5892 5893 5894 5894 5894 5894 5894
5858 5862 5866 5868 5870 5871 5874 5876 5877 5879 5880 5881 5882 5883 5885 5886 5887 5887 5887 5886 5886 5886 5885 5885 5884 5884 5884 5883 5883 5883 5883 5884 5884 5884 5884 5884 5885 5886 5887 5888 5889 5890 5891 5891 5892 5893 5893 5893 5893
5853 5858 5861 5863 5865 5867 5870 5871 5873 5875 5876 5877 5879 5880 5882 5883 5884 5884 5884 5884 5884 5883 5883 5883 5882 5882 5882 5881 5881 5881 5881 5881 5881 5882 5882 5882 5883 5884 5885 5886 5887 5888 5889 5889 5890 5891 5891 5891 5891
5849 5853 5856 5858 5860 5862 5864 5867 5870 5870 5872 5874 5876 5877 5879 5880 5881 5882 5882 5881 5881 5881 5881 5880 5880 5880 5880 5879 5879 5879 5879 5879 5879 5879 5880 5880 5881 5881 5882 5883 5884 5886 5887 5887 5888 5889 5889 5889 5889
5843 5847 5850 5852 5854 5857 5860 5862 5865 5867 5869 5871 5872 5873 5875 5877 5878 5879 5879 5879 5878 5878 5878 5878 5878 5877 5877 5876 5876 5876 5876 5876 5876 5877 5877 5878 5878 5879 5880 5881 5882 5883 5884 5885 5885 5886 5887 5887 5887
5836 5841 5844 5847 5849 5853 5857 5857 5861 5864 5866 5867 5868 5870 5872 5874 5875 5875 5876 5876 5875 5875 5875 5875 5875 5874 5874 5873 5873 5873 5873 5874 5874 5874 5875 5875 5876 5876 5877 5878 5879 5880 5881 5882 5882 5883 5884 5884 5885
5830 5835 5839 5842 5846 5850 5852 5852 5858 5860 5861 5862 5864 5866 5868 5870 5871 5872 5872 5872 5872 5872 5872 5872 5871 5871 5871 5870 5870 5870 5870 5871 5871 5871 5872 5872 5873 5873 5875 5876 5877 5877 5878 5879 5879 5880 5880 5881 5881
5824 5828 5834 5838 5840 5844 5846 5849 5852 5854 5856 5858 5860 5861 5864 5866 5868 5868 5868 5868 5868 5869 5869 5868 5868 5868 5868 5868 5867 5867 5867 5868 5868 5868 5869 5869 5870 5870 5871 5873 5873 5874 5875 5876 5876 5877 5877 5877 5877
5820 5824 5828 5831 5834 5837 5841 5844 5847 5849 5851 5853 5855 5857 5859 5862 5863 5864 5864 5865 5865 5865 5865 5865 5865 5865 5864 5864 5864 5864 5864 5864 5865 5865 5866 5866 5867 5867 5868 5869 5870 5871 5871 5872 5872 5873 5873 5873 5873
5814 5818 5821 5825 5828 5832 5836 5841 5843 5845 5847 5849 5851 5853 5855 5857 5859 5860 5861 5861 5861 5861 5861 5861 5861 5860 5860 5860 5860 5861 5861 5861 5862 5862 5862 5863 5863 5864 5865 5866 5866 5867 5867 5868 5868 5868 5869 5869 5869
5808 5812 5816 5820 5823 5827 5830 5838 5839 5840 5842 5844 5846 5848 5851 5853 5854 5856 5856 5856 5857 5857 5857 5857 5857 5857 5857 5856 5857 5857 5857 5858 5858 5859 5859 5860 5860 5861 5862 5862 5862 5863 5863 5863 5864 5864 5864 5864 5864